Regional Weather Roundup
Issued by NWS

Home | Current Version | Previous Version | Text Only | Print | Product List | Glossary On
Versions: 1 2 3 4 5 6 7 8 9 10 11 12 13 14 15 16 17 18 19 20 21 22 23 24 25 26 27 28 29 30 31 32 33 34 35 36 37 38 39 40 41 42 43 44 45 46 47 48 49 50
000
ASUS43 KMPX 260801
RWRMN
WEATHER ROUNDUP FOR MINNESOTA
NATIONAL WEATHER SERVICE TWIN CITIES/CHANHASSEN MN
200 AM CST FRI DEC 26 2014


NOTE: "FAIR" INDICATES FEW OR NO CLOUDS BELOW 12,000 FEET WITH NO
SIGNIFICANT WEATHER AND/OR OBSTRUCTIONS TO VISIBILITY. N/A MEANS
CURRENT SKY AND/OR WEATHER CONDITIONS ARE NOT AVAILABLE.

MNZ060>063-068>070-260900-
   Twin Cities Metro

CITY           SKY/WX    TMP DP  RH WIND       PRES   REMARKS
TWIN CITIES    CLOUDY    32  29  88 N7        29.87R WCI  26
ST PAUL        CLOUDY    32  30  92 NW5       29.89R WCI  27
CRYSTAL        CLOUDY    33  31  92 N8        29.87R FOG     WCI  26
BLAINE         CLOUDY    34  34 100 N8        29.88R FOG     WCI  27
LAKEVILLE      CLOUDY    30  28  93 N6        29.85R FOG     WCI  24
EDEN PRAIRIE   CLOUDY    33  30  88 N7        29.86R WCI  27
SOUTH ST PAUL  CLOUDY    33  31  93 N3        29.87R
LAKE ELMO      CLOUDY    32  32 100 N6        29.87R FOG     WCI  26
$$
MNZ001>005-007-008-013>017-022>024-027-028-260900-
   Northwest Minnesota

CITY           SKY/WX    TMP DP  RH WIND       PRES   REMARKS
BEMIDJI        CLOUDY    24  20  86 N7        29.95R WCI  16
HALLOCK        CLOUDY    25  21  86 NW8       30.04R WCI  16
ROSEAU         MOCLDY    23  18  80 NW5       29.99S WCI  17
WARROAD        CLOUDY    23  19  86 NW6       29.99S WCI  16
THIEF RVR FALL CLOUDY    25  21  86 N9        30.01R WCI  15
CROOKSTON      CLOUDY    25  21  86 N14       30.03S WCI  13
FOSSTON        CLOUDY    23  19  86 N12       29.98R WCI  12
DETROIT LAKES  CLOUDY    27  25  93 N5        29.96R WCI  21
MOORHEAD       CLOUDY    25  25 100 N16       30.01R WCI  12
PARK RAPIDS    CLOUDY    26  21  81 N10       29.93S WCI  16
MAHNOMEN       CLOUDY    25  21  87 N12       29.97R WCI  14
$$
MNZ006-009>011-018-025>026-260900-
   North Central Minnesota

CITY           SKY/WX    TMP DP  RH WIND       PRES   REMARKS
BAUDETTE       LGT SNOW  23  19  85 NW8       29.97R FOG     WCI  14
FLAG ISLAND    CLOUDY    23  19  86 NW12      29.98R WCI  12
INTL FALLS     CLOUDY    26  23  88 NW6       29.94R WCI  19
WASKISH        CLOUDY    25  21  86 CALM      29.97R
BIG FORK       MIX PCPN  27  23  86 CALM      29.94S
LONGVILLE      CLOUDY    27  21  80 N5        29.94R WCI  21
GRAND RAPIDS   CLOUDY    27  19  74 N13       29.92S WCI  16
CRANE LAKE     CLOUDY    27  21  80 CALM      29.95R
ORR            CLOUDY    27  19  74 CALM      29.91R
COOK           CLOUDY    27  21  80 CALM      29.93S
WALKER         CLOUDY    25  21  85 N3        29.94S
$$
MNZ012-019>021-037-260900-
   Northeast Minnesota

CITY           SKY/WX    TMP DP  RH WIND       PRES   REMARKS
DULUTH         CLOUDY    30  23  75 N9        29.88F WCI  22
ELY            CLOUDY    27  21  80 CALM      29.91S
HIBBING        CLOUDY    28  21  75 N7        29.92S WCI  21
EVELETH        CLOUDY    28  23  80 N5        29.93R WCI  23
DULUTH HARBOR  CLOUDY    34  27  75 CALM      29.93S
TWO HARBORS    CLOUDY    34  27  75 N3        29.89S
SILVER BAY     CLOUDY    30  25  80 N7        29.89S WCI  23
GRAND MARAIS     N/A     32  25  75 CALM      29.94R
G MARAIS ARPRT CLOUDY    25  19  80 CALM      29.88S
$$
MNZ029>031-032-039>041-046>048-054>057-064-260900-
   West Central Minnesota

CITY           SKY/WX    TMP DP  RH WIND       PRES   REMARKS
FERGUS FALLS   CLOUDY    27  19  74 N10       29.99R WCI  17
WHEATON        CLOUDY    25  21  86 N13G18    29.98S WCI  13
MORRIS         CLOUDY    27  25  93 N13       29.92R WCI  16
ALEXANDRIA     CLOUDY    27  23  85 N15       29.91S WCI  15
ELBOW LAKE     CLOUDY    25  23  91 N13       29.93S WCI  14
WADENA         CLOUDY    25  21  86 N10       29.93R WCI  15
GLENWOOD       LGT SNOW  27  25  93 N10       29.91R WCI  17
APPLETON       FLURRIES  28  25  86 N14       29.93R WCI  17
BENSON         FLURRIES  27  25  93 NE9G16    29.92R WCI  17
ORTONVILLE     CLOUDY    27  21  80 N17       29.94R WCI  14
MADISON          N/A     30  27  86 N13       29.93R WCI  20
WILLMAR        CLOUDY    30  27  86 N10       29.90S WCI  21
$$
MNZ033>034-036-042>043-049>051-058-059-260900-
   Central Minnesota

CITY           SKY/WX    TMP DP  RH WIND       PRES   REMARKS
ST CLOUD       CLOUDY    32  27  81 N7        29.90R WCI  26
SAUK CENTRE    LGT SNOW  27  26  94 N8        29.91R WCI  19
PAYNESVILLE    CLOUDY    27  26  98 NW8       29.90R WCI  18
AITKIN         CLOUDY    30  25  80 N9        29.90S WCI  22
PINE RIVER     CLOUDY    27  23  86 N10       29.96S WCI  17
BRAINERD       CLOUDY    27  22  81 N10       29.92S WCI  17
STAPLES        CLOUDY    25  21  86 N12       29.92S WCI  14
LONG PRAIRIE   LGT SNOW  27  25  93 N10       29.90S WCI  17
LITTLE FALLS   LGT SNOW  28  27  93 N5        29.91R WCI  23
LITCHFIELD     CLOUDY    30  30 100 N9        29.88S WCI  22
BUFFALO        CLOUDY    32  30  94 N6        29.89R FOG     WCI  26
MAPLE LAKE     CLOUDY    31  31  99 N7        29.90R WCI  25
$$
MNZ037-044-045-052-053-260900-
   East Central Minnesota

CITY           SKY/WX    TMP DP  RH WIND       PRES   REMARKS
PRINCETON      CLOUDY    30  28  93 N5        29.90R WCI  25
MORA           CLOUDY    30  28  93 N3        29.92R
CAMBRIDGE      LGT SNOW  34  27  75 N5        29.88R WCI  30
RUSH CITY      CLOUDY    31  30  96 CALM      29.90R
MOOSE LAKE     MIX PCPN  30  28  93 N5        29.89R WCI  25
HINCKLEY       CLOUDY    32  30  93 CALM      29.91R
CLOQUET        CLOUDY    30  25  80 N6        29.89S WCI  24
MCGREGOR       CLOUDY    30  25  80 N10       29.91S WCI  21
$$
MNZ071>073-080-081-089-090-097-098-260900-
   Southwest Minnesota

CITY           SKY/WX    TMP DP  RH WIND       PRES   REMARKS
MONTEVIDEO     CLOUDY    27  27 100 N12       29.92S WCI  16
GRANITE FALLS  CLOUDY    29  27  94 NW12G18   29.91S WCI  19
CANBY          CLOUDY    27  25  93 N12       29.94R WCI  16
MARSHALL       CLOUDY    28  25  86 N16       29.89R WCI  17
REDWOOD FALLS  CLOUDY    31  29  92 N7        29.88R WCI  24
OLIVIA         CLOUDY    30  28  93 N10       29.88R WCI  21
PIPESTONE      MIX PCPN  27  27 100 NE14G24   29.86R WCI  15
WINDOM         CLOUDY    30  30 100 N13       29.84R FOG     WCI  20
WORTHINGTON    CLOUDY    30 -17  12 N15       29.84R WCI  19
JACKSON        CLOUDY    32  32 100 N13       29.82S WCI  22
TRACY          CLOUDY    30  29  97 N13       29.87S WCI  20
SLAYTON        CLOUDY    28  28  98 N16       29.86R FOG     WCI  16
$$
MNZ065>067-074>077-082>085-091>093-260900-
   South Central Minnesota

CITY           SKY/WX    TMP DP  RH WIND       PRES   REMARKS
MANKATO        CLOUDY    32  28  86 N13       29.84R WCI  22
NEW ULM        CLOUDY    32  30  93 N7        29.85S FOG     WCI  26
ST JAMES       CLOUDY    34  30  86 N9        29.85R FOG     WCI  26
FAIRMONT       CLOUDY    32  28  86 N13       29.81R WCI  22
GLENCOE        CLOUDY    33  32  97 N7        29.86R FOG     WCI  27
FARIBAULT      CLOUDY    30  30 100 N6        29.84R WCI  24
OWATONNA       CLOUDY    32  30  93 CALM      29.82R
ALBERT LEA     CLOUDY    32  32 100 NE5       29.80R FOG     WCI  27
$$
MNZ078>079-086>088-094>096-260900-
   Southeast Minnesota

CITY           SKY/WX    TMP DP  RH WIND       PRES   REMARKS
ROCHESTER      CLOUDY    30  28  92 NE6       29.82R WCI  24
RED WING       CLOUDY    32  28  86 CALM      29.85R
STANTON        CLOUDY    32  30  92 N5        29.83R FOG     WCI  27
DODGE CENTER   CLOUDY    30  30 100 E5        29.81R WCI  25
WINONA         PTCLDY    30  30 100 CALM      29.86R FOG
AUSTIN         CLOUDY    30  30 100 CALM      29.80S
PRESTON        PTCLDY    32  29  88 S8        29.81R WCI  25
$$
ABBREVIATIONS USED IN REMARKS
   TC - TEMPERATURES IN CELSIUS
  WCI - WIND CHILL INDEX
   HX - HEAT INDEX
  VSB - VISIBILITY
$$



USA.gov is the U.S. government's official web portal to all federal, state and local government web resources and services.